Hovedside
METAR-TAF:

METAR-TAF

Lufthavner :

Kaolack, Senegal

breddegrad: 14-08N, lengdegrad: 016-04W, høyde over havet: 6 m

Gjeldene værobservasjon

Denne rapporten ble laget for 39 minutter siden, klokken 10:00 UTC
Vind 6 kt fra Nord
Temperatur 28°C
Luftfuktighet 79%
Trykk 1014 hPa
Sikt 10 km eller mer
Spredte skyer i en høyde av 1800 ft

METAR: GOOK 091000Z 36006KT 9999 SCT018 28/24 Q1014

Tid: 10:39 (10:39 UTC)


TAF: fraværende

Værobservasjoner og værvarsel for over 4000 flyplasser (METAR- og TAF-rapporter).

Tilgjengelige stasjoner er representert av de røde og gule prikkene på kartet.

Hold musepekeren over prikken for å se navnet på stasjonen.

Klikk så for å se værobservasjoner og -varsler.

For å forandre kartet kan du klikke på den grønne knappen med svart kryss for å zoome inn, på den grønne knappen med strek for å zoome ut, eller på de grønne pilene for å se tilstøtende kart.


METAR-TAF: